When you browse on this site, cookies collect data to enhance your experience and personalize the content and advertising you see.
Visit our Privacy Policy to learn more. By continuing to use the site, you agree to this use of cookies and data.
  • în România
  • Lista ţărilor
  • Pe 7 zile
  • Temperatura apei
  • Meteo pe hartă
  • Widget-uri
  • user-avatar
    Intrare

    Meteo pe oră la Adra

    Astăzi, 20 Noiembrie, Miercuri

    Timp Temperatura Precipitaţii Vânt Presiune Umiditate
    00:00 +12°C° 0 mm 1 m/s 759 mmHg 70%
    01:00 +12°C° 0 mm 1 m/s 759 mmHg 69%
    02:00 +11°C° 0 mm 1 m/s 758 mmHg 68%
    03:00 +11°C° 0 mm 1 m/s 758 mmHg 68%
    04:00 +11°C° 0 mm 1 m/s 758 mmHg 67%
    05:00 +11°C° 0 mm 1 m/s 758 mmHg 67%
    06:00 +10°C° 0 mm 1 m/s 758 mmHg 69%
    07:00 +12°C° 0 mm 1 m/s 758 mmHg 65%
    08:00 +13°C° 0 mm 1 m/s 758 mmHg 61%
    09:00 +14°C° 0 mm 1 m/s 758 mmHg 58%
    10:00 +15°C° 0 mm 2 m/s 758 mmHg 60%
    11:00 +14°C° 0 mm 3 m/s 758 mmHg 63%
    12:00 +15°C° 0 mm 5 m/s 758 mmHg 66%
    13:00 +14°C° 0.3 mm 5 m/s 757 mmHg 72%
    14:00 +14°C° 0.3 mm 5 m/s 757 mmHg 77%
    15:00 +14°C° 0.3 mm 5 m/s 756 mmHg 83%
    16:00 +13°C° 0.1 mm 5 m/s 756 mmHg 85%
    17:00 +13°C° 0.1 mm 5 m/s 756 mmHg 87%
    18:00 +13°C° 0.1 mm 5 m/s 756 mmHg 90%
    19:00 +11°C° 0 mm 6 m/s 756 mmHg 91%
    20:00 +11°C° 0 mm 6 m/s 757 mmHg 91%
    21:00 +11°C° 0 mm 6 m/s 757 mmHg 92%
    22:00 +11°C° 0 mm 6 m/s 757 mmHg 90%
    23:00 +11°C° 0 mm 6 m/s 757 mmHg 88%

    Mâine, 21 Noiembrie, Joi

    Timp Temperatura Precipitaţii Vânt Presiune Umiditate
    00:00 +12°C° 0 mm 5 m/s 757 mmHg 86%
    01:00 +12°C° 0 mm 5 m/s 757 mmHg 83%
    02:00 +12°C° 0 mm 5 m/s 756 mmHg 80%
    03:00 +12°C° 0 mm 4 m/s 756 mmHg 77%
    04:00 +12°C° 0 mm 4 m/s 756 mmHg 78%
    05:00 +12°C° 0 mm 4 m/s 756 mmHg 79%
    06:00 +12°C° 0 mm 4 m/s 756 mmHg 80%
    07:00 +13°C° 0.1 mm 4 m/s 757 mmHg 80%
    08:00 +13°C° 0.1 mm 4 m/s 757 mmHg 80%
    09:00 +14°C° 0.1 mm 4 m/s 757 mmHg 80%
    10:00 +14°C° 0.9 mm 3 m/s 757 mmHg 81%
    11:00 +14°C° 0.9 mm 3 m/s 756 mmHg 83%
    12:00 +14°C° 0.9 mm 3 m/s 756 mmHg 84%
    13:00 +14°C° 1 mm 3 m/s 756 mmHg 86%
    14:00 +14°C° 1 mm 3 m/s 756 mmHg 87%
    15:00 +14°C° 1 mm 4 m/s 755 mmHg 89%
    16:00 +14°C° 1.2 mm 4 m/s 755 mmHg 89%
    17:00 +14°C° 1.2 mm 4 m/s 755 mmHg 89%
    18:00 +14°C° 1.2 mm 5 m/s 755 mmHg 90%
    19:00 +14°C° 1.4 mm 5 m/s 755 mmHg 90%
    20:00 +14°C° 1.4 mm 5 m/s 756 mmHg 91%
    21:00 +14°C° 1.4 mm 5 m/s 756 mmHg 91%
    22:00 +14°C° 0.5 mm 5 m/s 755 mmHg 91%
    23:00 +14°C° 0.5 mm 5 m/s 755 mmHg 91%

    Poimâine, 22 Noiembrie, Vineri

    Timp Temperatura Precipitaţii Vânt Presiune Umiditate
    00:00 +14°C° 0.5 mm 5 m/s 755 mmHg 90%
    01:00 +14°C° 0 mm 5 m/s 755 mmHg 89%
    02:00 +14°C° 0 mm 5 m/s 755 mmHg 88%
    03:00 +13°C° 0 mm 5 m/s 754 mmHg 87%
    04:00 +13°C° 0 mm 5 m/s 754 mmHg 87%
    05:00 +13°C° 0 mm 5 m/s 754 mmHg 86%
    06:00 +13°C° 0 mm 5 m/s 754 mmHg 85%
    07:00 +14°C° 0.5 mm 5 m/s 753 mmHg 84%
    08:00 +15°C° 0.5 mm 5 m/s 753 mmHg 82%
    09:00 +16°C° 0.5 mm 5 m/s 753 mmHg 81%
    10:00 +15°C° 2.8 mm 5 m/s 752 mmHg 87%
    11:00 +15°C° 2.8 mm 5 m/s 752 mmHg 92%
    12:00 +15°C° 2.8 mm 5 m/s 751 mmHg 98%
    13:00 +15°C° 3.4 mm 5 m/s 750 mmHg 98%
    14:00 +15°C° 3.4 mm 6 m/s 749 mmHg 98%
    15:00 +15°C° 3.4 mm 6 m/s 748 mmHg 98%
    16:00 +16°C° 3.7 mm 8 m/s 748 mmHg 98%
    17:00 +16°C° 3.7 mm 9 m/s 748 mmHg 98%
    18:00 +16°C° 3.7 mm 11 m/s 747 mmHg 98%
    19:00 +16°C° 1.6 mm 10 m/s 748 mmHg 95%
    20:00 +16°C° 1.6 mm 9 m/s 748 mmHg 92%
    21:00 +15°C° 1.6 mm 9 m/s 749 mmHg 89%
    22:00 +13°C° 0 mm 9 m/s 749 mmHg 85%
    23:00 +13°C° 0 mm 10 m/s 749 mmHg 82%

    23 Noiembrie, Sâmbătă

    Timp Temperatura Precipitaţii Vânt Presiune Umiditate
    00:00 +12°C° 0 mm 10 m/s 749 mmHg 79%
    01:00 +12°C° 0.1 mm 10 m/s 749 mmHg 81%
    02:00 +11°C° 0.1 mm 11 m/s 749 mmHg 82%
    03:00 +11°C° 0.1 mm 11 m/s 749 mmHg 84%
    04:00 +11°C° 0.1 mm 11 m/s 750 mmHg 86%
    05:00 +9°C° 0.1 mm 10 m/s 750 mmHg 88%
    06:00 +9°C° 0.1 mm 10 m/s 750 mmHg 90%
    07:00 +10°C° 0.4 mm 9 m/s 751 mmHg 85%
    08:00 +11°C° 0.4 mm 8 m/s 752 mmHg 80%
    09:00 +11°C° 0.4 mm 7 m/s 753 mmHg 75%
    10:00 +12°C° 0 mm 8 m/s 753 mmHg 70%
    11:00 +12°C° 0 mm 10 m/s 753 mmHg 65%
    12:00 +13°C° 0 mm 11 m/s 753 mmHg 60%
    13:00 +13°C° 0 mm 10 m/s 753 mmHg 60%
    14:00 +13°C° 0 mm 10 m/s 753 mmHg 59%
    15:00 +13°C° 0 mm 10 m/s 753 mmHg 59%
    16:00 +12°C° 0 mm 9 m/s 754 mmHg 64%
    17:00 +11°C° 0 mm 8 m/s 755 mmHg 70%
    18:00 +10°C° 0 mm 7 m/s 756 mmHg 75%
    19:00 +10°C° 0 mm 6 m/s 756 mmHg 75%
    20:00 +10°C° 0 mm 6 m/s 757 mmHg 74%
    21:00 +10°C° 0 mm 5 m/s 758 mmHg 74%
    22:00 +10°C° 0 mm 5 m/s 758 mmHg 75%
    23:00 +10°C° 0 mm 5 m/s 758 mmHg 75%

    24 Noiembrie, Duminică

    Timp Temperatura Precipitaţii Vânt Presiune Umiditate
    00:00 +11°C° 0 mm 4 m/s 758 mmHg 75%
    01:00 +11°C° 0 mm 4 m/s 758 mmHg 74%
    02:00 +10°C° 0 mm 4 m/s 758 mmHg 72%
    03:00 +10°C° 0 mm 4 m/s 758 mmHg 70%
    04:00 +10°C° 0 mm 4 m/s 759 mmHg 67%
    05:00 +10°C° 0 mm 4 m/s 759 mmHg 63%
    06:00 +10°C° 0 mm 4 m/s 759 mmHg 60%
    07:00 +11°C° 0 mm 4 m/s 760 mmHg 57%
    08:00 +12°C° 0 mm 3 m/s 760 mmHg 54%
    09:00 +14°C° 0 mm 3 m/s 761 mmHg 52%
    10:00 +15°C° 0 mm 2 m/s 761 mmHg 50%
    11:00 +16°C° 0 mm 2 m/s 761 mmHg 48%
    12:00 +18°C° 0 mm 1 m/s 761 mmHg 46%
    13:00 +18°C° 0 mm 1 m/s 760 mmHg 49%
    14:00 +18°C° 0 mm 1 m/s 760 mmHg 52%
    15:00 +18°C° 0 mm 1 m/s 760 mmHg 55%
    16:00 +16°C° 0 mm 2 m/s 760 mmHg 58%
    17:00 +14°C° 0 mm 2 m/s 761 mmHg 61%
    18:00 +13°C° 0 mm 2 m/s 761 mmHg 65%
    19:00 +13°C° 0 mm 2 m/s 762 mmHg 62%
    20:00 +13°C° 0 mm 2 m/s 762 mmHg 58%
    21:00 +13°C° 0 mm 2 m/s 762 mmHg 55%
    22:00 +12°C° 0 mm 2 m/s 763 mmHg 53%
    23:00 +12°C° 0 mm 2 m/s 763 mmHg 51%

    25 Noiembrie, Luni

    Timp Temperatura Precipitaţii Vânt Presiune Umiditate
    00:00 +12°C° 0 mm 2 m/s 763 mmHg 49%
    01:00 +12°C° 0 mm 2 m/s 763 mmHg 48%
    02:00 +12°C° 0 mm 1 m/s 763 mmHg 48%
    03:00 +12°C° 0 mm 1 m/s 763 mmHg 47%
    04:00 +12°C° 0 mm 1 m/s 763 mmHg 46%
    05:00 +12°C° 0 mm 1 m/s 763 mmHg 45%
    06:00 +12°C° 0 mm 1 m/s 763 mmHg 45%
    07:00 +14°C° 0 mm 1 m/s 763 mmHg 42%
    08:00 +16°C° 0 mm 1 m/s 764 mmHg 39%
    09:00 +18°C° 0 mm 1 m/s 764 mmHg 36%
    10:00 +19°C° 0 mm 1 m/s 764 mmHg 37%
    11:00 +20°C° 0 mm 1 m/s 764 mmHg 38%
    12:00 +21°C° 0 mm 1 m/s 764 mmHg 39%
    13:00 +21°C° 0 mm 1 m/s 764 mmHg 43%
    14:00 +21°C° 0 mm 1 m/s 763 mmHg 46%
    15:00 +21°C° 0 mm 1 m/s 763 mmHg 49%
    16:00 +19°C° 0 mm 2 m/s 763 mmHg 54%
    17:00 +17°C° 0 mm 2 m/s 763 mmHg 58%
    18:00 +16°C° 0 mm 2 m/s 763 mmHg 63%
    19:00 +16°C° 0 mm 2 m/s 763 mmHg 63%
    20:00 +16°C° 0 mm 2 m/s 764 mmHg 63%
    21:00 +16°C° 0 mm 2 m/s 764 mmHg 63%
    22:00 +16°C° 0 mm 2 m/s 764 mmHg 63%
    23:00 +16°C° 0 mm 2 m/s 764 mmHg 63%
    Arată mai mult